This is the latest recevied weather packets stored in our database for station/object N8WJW. If no packets are shown the sender has not sent any weather packets the latest 10 day(s).
| Time | Temp. | Humidity | Pressure | Rain* | Wind** | Luminosity | Snow |
|---|---|---|---|---|---|---|---|
| 1778097984 | 10.56° C | 55% | 1013.4 hPa | 0 mm | - | 131 W/m² | - |
| 1778097681 | 11.11° C | 64% | 1013.3 hPa | 0 mm | - | 161 W/m² | - |
| 1778097378 | 11.11° C | 56% | 1013.4 hPa | 0 mm | - | 164 W/m² | - |
| 1778097074 | 10.56° C | 58% | 1013.4 hPa | 0 mm | - | 166 W/m² | - |
| 1778096772 | 11.11° C | 55% | 1013.1 hPa | 0 mm | - | 167 W/m² | - |
| 1778096468 | 11.67° C | 59% | 1013.3 hPa | 0 mm | - | 505 W/m² | - |
| 1778096166 | 11.67° C | 63% | 1013.3 hPa | 0 mm | - | 347 W/m² | - |
| 1778095863 | 11.11° C | 59% | 1013.5 hPa | 0 mm | - | 435 W/m² | - |
| 1778095560 | 11.11° C | 61% | 1013.4 hPa | 0 mm | - | 305 W/m² | - |
| 1778095255 | 11.67° C | 63% | 1013.3 hPa | 0 mm | - | 413 W/m² | - |
| 1778094952 | 11.67° C | 59% | 1013.2 hPa | 0 mm | - | 288 W/m² | - |
| 1778094648 | 11.11° C | 58% | 1013.4 hPa | 0 mm | - | 411 W/m² | - |
| 1778094345 | 11.67° C | 66% | 1013.4 hPa | 0 mm | - | 317 W/m² | - |
| 1778094042 | 11.67° C | 66% | 1013.2 hPa | 0 mm | - | 330 W/m² | - |
| 1778093740 | 12.22° C | 67% | 1013.4 hPa | 0 mm | - | 757 W/m² | - |
| 1778093436 | 11.67° C | 63% | 1013.2 hPa | 0 mm | - | 925 W/m² | - |
| 1778093133 | 12.22° C | 68% | 1013.5 hPa | 0 mm | - | 794 W/m² | - |
| 1778092831 | 12.22° C | 62% | 1013.3 hPa | 0 mm | - | 477 W/m² | - |
| 1778092526 | 12.22° C | 64% | 1013.2 hPa | 0 mm | - | 667 W/m² | - |
| 1778092223 | 12.22° C | 64% | 1013.3 hPa | 0 mm | - | 870 W/m² | - |
| 1778091921 | 12.22° C | 68% | 1013.3 hPa | 0 mm | - | 840 W/m² | - |
| 1778091618 | 11.67° C | 68% | 1013.4 hPa | 0 mm | - | 921 W/m² | - |
| 1778091316 | 12.22° C | 70% | 1013.3 hPa | 0 mm | - | 470 W/m² | - |
| 1778091012 | 11.67° C | 68% | 1013.6 hPa | 0 mm | - | 603 W/m² | - |
| 1778090709 | 11.67° C | 69% | 1013.3 hPa | 0 mm | - | 308 W/m² | - |
* Rain latest hour (hover to see other rain measurements)
** Current wind speed in m/s (hover to see current wind gust speed)